Regional Weather Roundup
Issued by NWS Sterling, VA

Home | Current Version | Previous Version | Text Only | Print | Product List | Glossary Off
Versions: 1 2 3 4 5 6 7 8 9 10 11 12 13 14 15 16 17 18 19 20 21 22 23 24 25 26 27 28 29 30 31 32 33 34 35 36 37 38 39 40 41 42 43 44 45 46 47 48 49 50

000
ASUS41 KLWX 010110
RWRLWX

REGIONAL WEATHER ROUNDUP
NATIONAL WEATHER SERVICE BALTIMORE MD/WASHINGTON DC
900 PM EDT TUE SEP 30 2014

Note: "FAIR" indicates few or no clouds below 12,000 feet
with no significant weather and/or obstructions to visibility.
 TC=TEMPERATURE CELSIUS

 * =Non NWS site. Station does not report precipitation (e.g. rain,
    snow, etc.), thunder, or fog.

DCZ001-MDZ009-015-VAZ040>042-051-053>054-010200-
WASHINGTON METRO

CITY           SKY/WX    TMP DP  RH WIND       PRES   REMARKS
WASHINGTON NAT FAIR      70  61  73 S5        29.91R
DULLES         MOCLDY    65  61  87 NW10      29.94R
ANDREWS AFB    CLEAR     62  59  89 SE2       29.91R
QUANTICO       FAIR      65  62  90 NW6       29.92R
COLLEGE PARK*  FAIR      64  61  88 CALM      29.91R
LEESBURG*      CLOUDY    66  64  94 NW7       29.95R
MANASSAS*      CLEAR     63  63 100 CALM      29.93R
GAITHERSBURG*  CLOUDY    64  61  88 CALM      29.96R

$$

MDZ006>007-011-014-010200-
BALTIMORE METRO

CITY           SKY/WX    TMP DP  RH WIND       PRES   REMARKS
BWI AIRPORT    MOCLDY    68  60  75 CALM      29.91R
MD SCIENCE CTR   N/A     72  62  71 MISG      29.92R
MARTIN STATE   PTCLDY    70  64  83 E8G18     29.94R
ANNAPOLIS      CLEAR     71  62  73 E10       29.91R
FORT MEADE*    PTCLDY    61  59  94 CALM      29.94R

$$

MDZ012-015-019>023-010200-
MARYLAND EASTERN SHORE

CITY           SKY/WX    TMP DP  RH WIND       PRES   REMARKS
OCEAN CITY     CLEAR     68  62  81 NE6       29.91R
SALISBURY      CLEAR     65  61  87 CALM      29.92R
BAY BRIDGE AP*   N/A     68  59  73 E10       29.91S
CAMBRIDGE*     CLOUDY    72  63  73 E5        29.91S
EASTON*        MOCLDY    68  63  83 CALM      29.96R

$$

MDZ017>025-010200-
SOUTHERN MARYLAND

CITY           SKY/WX    TMP DP  RH WIND       PRES   REMARKS
PATUXENT RIVER PTCLDY    67  62  84 SE5       29.89S
ST INIGOES     CLEAR     62  59  90 E5        29.89R
LEONARDTOWN*   PTCLDY    63  61  94 CALM      29.91S

$$

MDZ003>005-010200-
NORTH CENTRAL MARYLAND

CITY           SKY/WX    TMP DP  RH WIND       PRES   REMARKS
FREDERICK*     TSTM      70  66  88 CALM      29.97R
HAGERSTOWN APT CLOUDY    63  59  87 E8        29.94S
WESTMINSTER*   CLOUDY    66  59  77 CALM      29.94R

$$

MDZ501>502-010200-
WESTERN MARYLAND

CITY           SKY/WX    TMP DP  RH WIND       PRES   REMARKS
OAKLAND*       MOCLDY    52 N/A N/A S6        29.98R
CUMBERLAND*    PTCLDY    64  54  68 CALM      29.97R

$$

VAZ025>031-010200-
SHENANDOAH VALLEY

CITY           SKY/WX    TMP DP  RH WIND       PRES   REMARKS
WINCHESTER*    CLOUDY    63  61  94 CALM      29.93R
STAUNTON*      FAIR      63  57  82 N8        29.95R

$$

WVZ021-048>050-054>055-010200-
EASTERN WEST VIRGINIA PANHANDLE

CITY           SKY/WX    TMP DP  RH WIND       PRES   REMARKS
MARTINSBURG    LGT RAIN  65  61  87 NE7       29.93S
PETERSBURG*    MOCLDY   N/A N/A N/A W3        29.93S

$$

VAZ036>039-050-010200-
CENTRAL FOOTHILLS

CITY           SKY/WX    TMP DP  RH WIND       PRES   REMARKS
CHARLOTTESVILL FAIR      63  61  93 S3        29.92R
ORANGE*        MOCLDY    61  61 100 CALM      29.94R

$$

VAZ055>057-010200-
NORTH AND CENTRAL PIEDMONT

CITY           SKY/WX    TMP DP  RH WIND       PRES   REMARKS
FREDERICKSBRG* FAIR      66  65  97 N5        29.91R
STAFFORD*      FAIR      62  62 100 NW3       29.96R

$$

NCZ024-NYZ072-PAZ021-071-VAZ022-071-010200-
OTHER REGIONAL OBSERVATIONS

CITY           SKY/WX    TMP DP  RH WIND       PRES   REMARKS
NEW YORK CITY  CLOUDY    65  57  75 E7        30.00R
PHILADELPHIA   MOCLDY    66  59  78 E6        29.96R
PITTSBURGH     TSTM      58  56  93 W6        29.94R FOG
ROANOKE        FAIR      67  56  67 CALM      29.93R
RICHMOND       FAIR      64  61  90 CALM      29.91R
RALEIGH        FAIR      64  61  90 E3        29.92R

$$

ANZ530>537-010200-
MARINE OBSERVATIONS

STATION/POSITION TIME  TEMP    WIND        PRES
                       AIR SEA DIR/SP/G
                 (UTC) (F)     (DEG/KT/KT) (MB)
THOMAS PT LIGHT  0100   70 72  110/ 13/ 14 1013.7R
BALT KEY BRIDGE  0100   72     120/ 15/ 18 1012.2F
COVE POINT       0100   70     120/  8/  9 1012.3R
LEWISETTA        0100   68 72  170/  5/  6 1012.0S
SOLOMONS ISLAND  0100      74                N/A
PINEY POINT      0100          160/  9/ 10   N/A

$$




USA.gov is the U.S. government's official web portal to all federal, state and local government web resources and services.